GW4396 Weather Reports


time (UTC)temp
C
wind
direction
speed
KPH
gust
KPH
rain 1hr
cm
rain 24hr
cm
rain mn
cm
humidity
%
barometer
mb
20260507125009 26 126 8.0 11.3 0.00 0.00 0.00 74 1006.3
20260507124505 26 161 6.4 9.7 0.00 0.00 0.00 74 1006.6
20260507124003 25 227 3.2 4.8 0.00 0.00 0.00 74 1006.3
20260507123501 25 104 4.8 8.0 0.00 0.00 0.00 75 1006.6
20260507122956 25 320 4.8 4.8 0.00 0.00 0.00 75 1006.6
20260507122452 25 80 3.2 3.2 0.00 0.00 0.00 75 1006.6
20260507121949 25 106 9.7 16.1 0.00 0.00 0.00 74 1006.3
20260507121444 25 332 3.2 4.8 0.00 0.00 0.00 75 1006.4
20260507120941 25 113 4.8 8.0 0.00 0.00 0.00 75 1006.2
20260507120437 25 82 3.2 8.0 0.00 0.00 0.00 75 1006.2
20260507115933 25 90 8.0 14.5 0.00 0.00 0.00 75 1006.4
20260507115430 25 102 6.4 12.9 0.00 0.00 0.00 75 1006.5
20260507114926 25 248 4.8 8.0 0.00 0.00 0.00 75 1006.3
20260507114422 25 102 4.8 4.8 0.00 0.00 0.00 75 1006.2
20260507113920 25 95 3.2 8.0 0.00 0.00 0.00 75 1006.1
20260507113417 25 115 4.8 4.8 0.00 0.00 0.00 75 1006.2
20260507112914 25 33 3.2 4.8 0.00 0.00 0.00 75 1006.3
20260507112412 25 307 4.8 17.7 0.00 0.00 0.00 75 1006.3
20260507111909 25 73 3.2 4.8 0.00 0.00 0.00 75 1006.1
20260507111405 25 59 4.8 8.0 0.00 0.00 0.00 75 1005.8
20260507110902 25 108 8.0 11.3 0.00 0.00 0.00 75 1005.8
20260507110358 25 77 9.7 11.3 0.00 0.00 0.00 75 1005.8
20260507105855 25 103 6.4 12.9 0.00 0.00 0.00 75 1006.0
20260507105351 25 267 6.4 11.3 0.00 0.00 0.00 75 1006.2
20260507104848 25 78 4.8 4.8 0.00 0.00 0.00 75 1005.9
20260507104345 25 120 4.8 8.0 0.00 0.00 0.00 75 1005.9
20260507103841 25 200 4.8 9.7 0.00 0.00 0.00 75 1005.8
20260507103337 25 76 4.8 8.0 0.00 0.00 0.00 76 1006.0
20260507102834 25 97 6.4 12.9 0.00 0.00 0.00 76 1005.8
20260507102331 25 245 6.4 11.3 0.00 0.00 0.00 76 1006.0
20260507101827 25 95 3.2 4.8 0.00 0.00 0.00 76 1005.6
20260507101327 25 64 6.4 8.0 0.00 0.00 0.00 76 1005.5
20260507100824 25 92 3.2 4.8 0.00 0.00 0.00 76 1005.8
20260507100323 25 122 4.8 9.7 0.00 0.00 0.00 76 1005.6
20260507095821 25 101 3.2 4.8 0.00 0.00 0.00 76 1005.7
20260507095317 25 297 3.2 4.8 0.00 0.00 0.00 76 1005.7
20260507094814 25 78 8.0 12.9 0.00 0.00 0.00 76 1005.8
20260507094310 25 140 9.7 12.9 0.00 0.00 0.00 76 1005.8
20260507093807 25 103 4.8 4.8 0.00 0.00 0.00 76 1005.4
20260507093306 25 102 6.4 9.7 0.00 0.00 0.00 76 1005.4
20260507092804 25 301 4.8 8.0 0.00 0.00 0.00 76 1005.8
20260507092259 25 83 1.6 1.6 0.00 0.00 0.00 76 1005.3
20260507091756 25 45 4.8 8.0 0.00 0.00 0.00 76 1005.3
20260507091253 25 96 9.7 11.3 0.00 0.00 0.00 76 1005.4
20260507090753 25 94 1.6 1.6 0.00 0.00 0.00 76 1005.2
20260507090250 25 106 8.0 12.9 0.00 0.00 0.00 77 1005.5
20260507085747 24 70 6.4 9.7 0.00 0.00 0.00 77 1005.4
20260507085244 24 110 4.8 4.8 0.00 0.00 0.00 77 1005.4
20260507084741 25 66 8.0 9.7 0.00 0.00 0.00 77 1005.4
20260507084237 25 101 3.2 3.2 0.00 0.00 0.00 77 1005.2
20260507083735 25 81 3.2 4.8 0.00 0.00 0.00 77 1005.2
20260507083231 25 84 3.2 4.8 0.00 0.00 0.00 77 1005.3
20260507082728 24 101 4.8 9.7 0.00 0.00 0.00 77 1005.5
20260507082223 24 94 6.4 8.0 0.00 0.00 0.00 77 1005.4
20260507081721 24 119 3.2 4.8 0.00 0.00 0.00 78 1005.6
20260507081216 24 88 4.8 8.0 0.00 0.00 0.00 79 1005.4
20260507080713 24 71 6.4 9.7 0.00 0.00 0.00 79 1005.4
20260507080209 24 107 8.0 9.7 0.00 0.00 0.00 79 1005.4
20260507075705 24 99 6.4 9.7 0.00 0.00 0.00 79 1005.3
20260507075201 24 100 6.4 9.7 0.00 0.00 0.00 79 1005.4
20260507074658 24 101 6.4 9.7 0.00 0.00 0.00 79 1005.4
20260507074156 24 84 6.4 9.7 0.00 0.00 0.00 80 1005.7
20260507073652 24 82 4.8 8.0 0.00 0.00 0.00 80 1005.8
20260507073148 24 90 8.0 9.7 0.00 0.00 0.00 79 1005.7
20260507072647 24 96 11.3 16.1 0.00 0.00 0.00 79 1005.5
20260507072143 24 89 1.6 1.6 0.00 0.00 0.00 79 1005.7
20260507071641 24 87 11.3 14.5 0.00 0.00 0.00 79 1005.8
20260507071137 24 95 8.0 9.7 0.00 0.00 0.00 79 1005.9
20260507070635 24 93 9.7 12.9 0.00 0.00 0.00 78 1005.7
20260507070132 24 100 8.0 9.7 0.00 0.00 0.00 78 1005.8
20260507065628 24 85 6.4 9.7 0.00 0.00 0.00 79 1005.6
20260507065125 25 102 4.8 4.8 0.00 0.00 0.00 78 1006.0
20260507064622 25 79 8.0 12.9 0.00 0.00 0.00 78 1005.8
20260507064121 25 107 6.4 8.0 0.00 0.00 0.00 77 1006.0
20260507063618 25 76 6.4 8.0 0.00 0.00 0.00 76 1005.7
20260507063115 25 94 8.0 12.9 0.00 0.00 0.00 76 1006.1
20260507062611 25 85 9.7 14.5 0.00 0.00 0.00 75 1006.2
20260507062109 25 219 6.4 11.3 0.00 0.00 0.00 75 1005.9
20260507061607 25 98 8.0 9.7 0.00 0.00 0.00 75 1006.1
20260507061105 25 105 9.7 11.3 0.00 0.00 0.00 75 1006.2
20260507060602 25 108 6.4 9.7 0.00 0.00 0.00 75 1006.4
20260507060059 25 101 8.0 9.7 0.00 0.00 0.00 76 1006.4
20260507055554 25 91 6.4 8.0 0.00 0.00 0.00 75 1006.3
20260507055050 25 132 3.2 4.8 0.00 0.00 0.00 77 1006.2
20260507054546 25 88 4.8 8.0 0.00 0.00 0.00 76 1006.2
20260507054044 25 83 4.8 8.0 0.00 0.00 0.00 76 1006.6
20260507053541 26 127 3.2 3.2 0.00 0.00 0.00 74 1006.7
20260507053040 26 102 4.8 11.3 0.00 0.00 0.00 74 1006.8
20260507052537 26 85 4.8 4.8 0.00 0.00 0.00 74 1006.7
20260507052034 26 211 4.8 8.0 0.00 0.00 0.00 73 1006.8
20260507051532 26 95 3.2 4.8 0.00 0.00 0.00 73 1006.5
20260507051028 26 88 3.2 4.8 0.00 0.00 0.00 72 1006.9
20260507050525 26 77 1.6 3.2 0.00 0.00 0.00 72 1006.7
20260507050021 26 88 3.2 4.8 0.00 0.00 0.00 72 1006.6
20260507045518 26 111 6.4 11.3 0.00 0.00 0.00 71 1007.0
20260507045015 26 26 3.2 3.2 0.00 0.00 0.00 73 1007.0
20260507044512 26 88 3.2 3.2 0.00 0.00 0.00 73 1007.1
20260507044008 26 148 4.8 11.3 0.00 0.00 0.00 73 1006.9
20260507043505 26 90 3.2 3.2 0.00 0.00 0.00 73 1006.8
20260507043001 26 89 4.8 9.7 0.00 0.00 0.00 72 1007.0
20260507042458 26 92 3.2 4.8 0.00 0.00 0.00 72 1007.0
20260507041953 27 111 3.2 4.8 0.00 0.00 0.00 71 1007.0
20260507041450 27 342 3.2 3.2 0.00 0.00 0.00 70 1007.1
20260507040947 27 90 3.2 4.8 0.00 0.00 0.00 70 1007.3
20260507040443 27 69 6.4 9.7 0.00 0.00 0.00 70 1007.3
20260507035939 27 58 3.2 3.2 0.00 0.00 0.00 71 1007.4
20260507035436 27 89 1.6 1.6 0.00 0.00 0.00 71 1007.0
20260507034933 27 91 1.6 3.2 0.00 0.00 0.00 71 1007.2
20260507034430 27 91 1.6 3.2 0.00 0.00 0.00 71 1007.0
20260507033928 27 94 4.8 4.8 0.00 0.00 0.00 72 1007.0
20260507033425 27 95 9.7 12.9 0.00 0.00 0.00 71 1007.2
20260507032922 27 110 3.2 4.8 0.00 0.00 0.00 71 1007.1
20260507032419 27 122 6.4 8.0 0.00 0.00 0.00 71 1007.4
20260507031915 27 87 3.2 3.2 0.00 0.00 0.00 71 1007.4
20260507031412 27 77 3.2 8.0 0.00 0.00 0.00 70 1007.4
20260507030908 27 74 6.4 12.9 0.00 0.00 0.00 69 1007.3
20260507030406 27 227 9.7 12.9 0.00 0.00 0.00 69 1007.3
20260507025903 27 88 8.0 11.3 0.00 0.00 0.00 69 1007.5
20260507025400 27 134 4.8 8.0 0.00 0.00 0.00 70 1007.6
20260507024858 27 219 4.8 8.0 0.00 0.00 0.00 70 1007.4
20260507024355 27 132 6.4 9.7 0.00 0.00 0.00 71 1007.4
20260507023850 27 143 4.8 4.8 0.00 0.00 0.00 73 1007.4
20260507023348 27 78 4.8 4.8 0.00 0.00 0.00 73 1007.5
20260507022845 27 73 9.7 20.9 0.00 0.00 0.00 73 1007.5
20260507022341 27 82 3.2 4.8 0.00 0.00 0.00 72 1007.6
20260507021837 27 100 4.8 4.8 0.00 0.00 0.00 72 1007.8
20260507021333 27 95 9.7 12.9 0.00 0.00 0.00 73 1007.5
20260507020831 27 266 6.4 11.3 0.00 0.00 0.00 73 1007.4
20260507020327 27 97 9.7 14.5 0.00 0.00 0.00 73 1007.6
20260507015824 27 97 14.5 20.9 0.00 0.00 0.00 72 1007.8
20260507015322 27 88 8.0 9.7 0.00 0.00 0.00 73 1007.9
20260507014819 27 91 1.6 1.6 0.00 0.00 0.00 74 1007.9
20260507014315 27 121 11.3 12.9 0.00 0.00 0.00 74 1008.0
20260507013806 27 120 8.0 9.7 0.00 0.00 0.00 74 1008.0
20260507013303 27 99 6.4 8.0 0.00 0.00 0.00 74 1008.0
20260507012800 27 70 8.0 12.9 0.00 0.00 0.00 74 1008.1
20260507012256 27 96 4.8 8.0 0.00 0.00 0.00 74 1007.9
20260507011754 27 112 8.0 9.7 0.00 0.00 0.00 73 1008.1
20260507011250 27 139 3.2 8.0 0.00 0.00 0.00 73 1008.1
20260507010750 27 97 6.4 9.7 0.00 0.00 0.00 74 1008.2
20260507010246 27 98 8.0 9.7 0.00 0.00 0.00 74 1008.1
20260507005744 27 92 4.8 8.0 0.00 0.00 0.00 74 1008.0
20260507005240 27 101 4.8 8.0 0.00 0.00 0.00 75 1008.3
20260507004736 27 92 9.7 12.9 0.00 0.00 0.00 75 1008.3
20260507004235 27 88 4.8 4.8 0.00 0.00 0.00 75 1008.3
20260507003730 27 88 8.0 11.3 0.00 0.00 0.00 75 1008.5
20260507003226 27 113 4.8 8.0 0.00 0.00 0.00 76 1008.2
20260507002722 27 87 6.4 9.7 0.00 0.00 0.00 75 1008.2
20260507002218 27 98 8.0 12.9 0.00 0.00 0.00 75 1008.3
20260507001715 27 94 8.0 9.7 0.00 0.00 0.00 75 1008.4
20260507001212 27 88 8.0 9.7 0.00 0.00 0.00 76 1008.3
20260507000708 27 108 4.8 8.0 0.00 0.00 0.00 76 1008.4
20260507000205 27 97 4.8 8.0 0.00 0.00 0.00 77 1008.5
20260506235702 27 94 3.2 4.8 0.00 0.00 0.00 77 1008.5
20260506235157 27 128 8.0 9.7 0.00 0.00 0.00 78 1008.4
20260506234654 26 120 6.4 8.0 0.00 0.00 0.00 78 1008.3
20260506234151 26 114 4.8 8.0 0.00 0.00 0.00 78 1008.4
20260506233648 26 102 6.4 8.0 0.00 0.00 0.00 78 1008.6
20260506233145 26 123 4.8 9.7 0.00 0.00 0.00 79 1008.6
20260506232641 26 68 8.0 11.3 0.00 0.00 0.00 79 1008.4
20260506232137 27 59 9.7 12.9 0.00 0.00 0.00 79 1008.7
20260506231634 27 100 8.0 11.3 0.00 0.00 0.00 79 1008.7
20260506231132 27 95 6.4 9.7 0.00 0.00 0.00 78 1008.6
20260506230629 27 82 4.8 4.8 0.00 0.00 0.00 77 1008.7
20260506230126 27 99 1.6 3.2 0.00 0.00 0.00 76 1008.9
20260506225622 27 86 4.8 4.8 0.00 0.00 0.00 75 1008.5
20260506225119 28 85 4.8 4.8 0.00 0.00 0.00 75 1008.8
20260506224616 28 106 6.4 9.7 0.00 0.00 0.00 74 1008.4
20260506224112 28 121 3.2 4.8 0.00 0.00 0.00 73 1008.6
20260506223608 28 85 4.8 8.0 0.00 0.00 0.00 73 1009.0
20260506223104 28 89 4.8 4.8 0.00 0.00 0.00 74 1008.7
20260506222601 28 87 0.0 0.0 0.00 0.00 0.00 74 1008.8
20260506222058 28 95 4.8 4.8 0.00 0.00 0.00 74 1008.6
20260506221555 28 105 1.6 3.2 0.00 0.00 0.00 74 1008.6
20260506221053 28 85 4.8 8.0 0.00 0.00 0.00 74 1008.8
20260506220549 28 105 3.2 3.2 0.00 0.00 0.00 73 1008.6
20260506220045 28 98 0.0 0.0 0.00 0.00 0.00 74 1008.7
20260506215542 28 111 1.6 1.6 0.00 0.00 0.00 74 1008.4
20260506215038 28 97 3.2 3.2 0.00 0.00 0.00 73 1008.6
20260506214535 28 101 0.0 1.6 0.00 0.00 0.00 73 1008.6
20260506214032 28 91 4.8 8.0 0.00 0.00 0.00 74 1008.8
20260506213530 28 91 0.0 1.6 0.00 0.00 0.00 73 1008.8
20260506213027 28 29 1.6 3.2 0.00 0.00 0.00 73 1008.5
20260506212523 28 106 1.6 1.6 0.00 0.00 0.00 73 1008.8
20260506212018 28 89 0.0 1.6 0.00 0.00 0.00 73 1008.8
20260506211514 28 88 3.2 3.2 0.00 0.00 0.00 73 1008.7
20260506211013 28 131 0.0 0.0 0.00 0.00 0.00 73 1008.9
20260506210509 28 63 1.6 3.2 0.00 0.00 0.00 73 1008.8
20260506210006 28 113 0.0 0.0 0.00 0.00 0.00 73 1009.0
20260506205502 28 92 0.0 0.0 0.00 0.00 0.00 72 1008.9
20260506204957 29 88 0.0 0.0 0.00 0.00 0.00 72 1009.0
20260506204456 29 91 0.0 0.0 0.00 0.00 0.00 70 1009.2
20260506203952 30 85 0.0 0.0 0.00 0.00 0.00 70 1008.9
20260506203450 30 87 0.0 0.0 0.00 0.00 0.00 69 1009.0
20260506202946 30 96 0.0 0.0 0.00 0.00 0.00 69 1009.1
20260506202444 30 67 1.6 3.2 0.00 0.00 0.00 68 1009.2
20260506201940 30 102 0.0 0.0 0.00 0.00 0.00 70 1009.0
20260506201438 30 95 0.0 0.0 0.00 0.00 0.00 71 1009.0
20260506200934 31 90 1.6 3.2 0.00 0.00 0.00 68 1008.9
20260506200430 31 89 0.0 0.0 0.00 0.00 0.00 68 1008.8
20260506195927 31 229 1.6 1.6 0.00 0.00 0.00 65 1009.2
20260506195424 31 10 3.2 4.8 0.00 0.00 0.00 64 1009.5
20260506194921 31 17 6.4 9.7 0.00 0.00 0.00 63 1009.1
20260506194418 31 65 3.2 4.8 0.00 0.00 0.00 64 1009.1
20260506193915 31 102 1.6 3.2 0.00 0.00 0.00 63 1009.2
20260506193412 32 97 0.0 1.6 0.00 0.00 0.00 65 1009.2
20260506192908 32 304 1.6 1.6 0.00 0.00 0.00 62 1009.3
20260506192405 33 77 0.0 0.0 0.00 0.00 0.00 62 1009.5
20260506191902 33 96 1.6 1.6 0.00 0.00 0.00 62 1009.5
20260506191358 34 69 1.6 3.2 0.00 0.00 0.00 59 1009.2
20260506190855 33 9 3.2 8.0 0.00 0.00 0.00 59 1009.3
20260506190352 34 93 1.6 3.2 0.00 0.00 0.00 59 1009.6
20260506185849 33 315 8.0 16.1 0.00 0.00 0.00 60 1009.5
20260506185346 33 90 3.2 3.2 0.00 0.00 0.00 62 1009.7
20260506184843 33 137 3.2 3.2 0.00 0.00 0.00 59 1009.9
20260506184340 33 102 3.2 8.0 0.00 0.00 0.00 61 1009.8
20260506183837 33 108 3.2 4.8 0.00 0.00 0.00 61 1009.8
20260506183332 33 276 1.6 4.8 0.00 0.00 0.00 59 1010.0
20260506182830 33 85 3.2 4.8 0.00 0.00 0.00 59 1009.9
20260506182327 33 122 4.8 8.0 0.00 0.00 0.00 59 1010.2
20260506181824 33 44 1.6 3.2 0.00 0.00 0.00 60 1009.8
20260506181322 33 331 3.2 4.8 0.00 0.00 0.00 58 1010.1
20260506180819 33 331 8.0 11.3 0.00 0.00 0.00 58 1009.9
20260506180315 33 119 6.4 12.9 0.00 0.00 0.00 58 1010.0
20260506175811 33 357 9.7 14.5 0.00 0.00 0.00 58 1010.3
20260506175308 33 78 8.0 11.3 0.00 0.00 0.00 59 1010.1
20260506174806 33 97 4.8 9.7 0.00 0.00 0.00 59 1010.4
20260506174303 33 90 4.8 9.7 0.00 0.00 0.00 60 1010.5
20260506173800 33 119 4.8 4.8 0.00 0.00 0.00 61 1010.6
20260506173257 33 31 3.2 9.7 0.00 0.00 0.00 59 1010.4
20260506172754 33 59 4.8 4.8 0.00 0.00 0.00 60 1010.9
20260506172250 33 158 3.2 3.2 0.00 0.00 0.00 59 1010.9
20260506171748 33 81 0.0 0.0 0.00 0.00 0.00 62 1011.0
20260506171245 33 330 9.7 14.5 0.00 0.00 0.00 59 1010.7
20260506170743 33 112 3.2 4.8 0.00 0.00 0.00 60 1010.8
20260506170239 33 79 0.0 1.6 0.00 0.00 0.00 58 1011.1
20260506165738 33 172 6.4 11.3 0.00 0.00 0.00 60 1011.3
20260506165234 33 12 4.8 9.7 0.00 0.00 0.00 60 1011.4
20260506164731 32 103 4.8 8.0 0.00 0.00 0.00 61 1011.2
20260506164228 32 80 6.4 9.7 0.00 0.00 0.00 61 1011.7
20260506163725 32 55 4.8 8.0 0.00 0.00 0.00 62 1011.6
20260506163220 33 61 3.2 4.8 0.00 0.00 0.00 62 1011.8
20260506162716 33 285 3.2 4.8 0.00 0.00 0.00 61 1011.9
20260506162214 32 77 1.6 1.6 0.00 0.00 0.00 63 1012.0
20260506161711 32 71 4.8 8.0 0.00 0.00 0.00 62 1012.0
20260506161208 32 88 1.6 3.2 0.00 0.00 0.00 64 1012.1
20260506160706 32 49 1.6 1.6 0.00 0.00 0.00 63 1012.3
20260506160202 33 109 6.4 9.7 0.00 0.00 0.00 63 1012.3
20260506155700 32 85 3.2 3.2 0.00 0.00 0.00 62 1012.5
20260506155157 33 84 3.2 4.8 0.00 0.00 0.00 61 1012.5
20260506153259 32 348 1.6 1.6 0.00 0.00 0.00 64 1013.0
20260506152756 33 314 4.8 8.0 0.00 0.00 0.00 62 1013.0
20260506152253 31 69 3.2 4.8 0.00 0.00 0.00 65 1013.0
20260506151752 32 279 3.2 3.2 0.00 0.00 0.00 67 1012.8
20260506151249 31 312 1.6 3.2 0.00 0.00 0.00 65 1013.0
20260506150745 32 54 0.0 1.6 0.00 0.00 0.00 66 1013.5
20260506150243 32 92 3.2 4.8 0.00 0.00 0.00 66 1013.2
20260506145739 32 310 4.8 9.7 0.00 0.00 0.00 64 1013.3
20260506145235 31 306 3.2 4.8 0.00 0.00 0.00 65 1013.4
20260506144733 31 104 4.8 8.0 0.00 0.00 0.00 66 1013.3
20260506144230 31 79 6.4 8.0 0.00 0.00 0.00 66 1013.6
20260506143727 31 142 4.8 8.0 0.00 0.00 0.00 66 1013.6
20260506143225 31 85 9.7 12.9 0.00 0.00 0.00 65 1013.7
20260506142724 31 83 8.0 9.7 0.00 0.00 0.00 68 1014.0
20260506142221 30 99 8.0 9.7 0.00 0.00 0.00 68 1013.8
20260506141719 30 133 4.8 9.7 0.00 0.00 0.00 69 1013.9
20260506141217 30 5 3.2 4.8 0.00 0.00 0.00 69 1014.2
20260506140714 30 103 1.6 3.2 0.00 0.00 0.00 72 1014.1
20260506140211 29 82 3.2 3.2 0.00 0.00 0.00 72 1014.0
20260506135708 29 102 4.8 8.0 0.00 0.00 0.00 73 1014.0
20260506135204 28 89 6.4 9.7 0.00 0.00 0.00 74 1014.4
20260506134701 28 81 4.8 8.0 0.00 0.00 0.00 74 1014.4
20260506134157 28 113 9.7 12.9 0.00 0.00 0.00 74 1014.5
20260506133654 28 86 6.4 8.0 0.00 0.00 0.00 75 1014.5
20260506133151 27 107 14.5 20.9 0.00 0.00 0.00 76 1014.7
20260506132648 27 101 3.2 4.8 0.00 0.00 0.00 77 1014.8
20260506132145 27 94 11.3 14.5 0.00 0.00 0.00 76 1014.6
20260506131643 27 106 3.2 9.7 0.00 0.00 0.00 77 1014.6
20260506131139 26 106 8.0 11.3 0.00 0.00 0.00 78 1014.7
20260506130636 26 105 6.4 8.0 0.00 0.00 0.00 78 1014.7
20260506130133 26 110 4.8 8.0 0.00 0.00 0.00 79 1014.9
20260506125631 26 76 4.8 4.8 0.00 0.00 0.00 79 1014.5